Theta_e
300 294 291 294 297 297 295 293 292 296 298 294 293 294 296 298 298 297 299 300 300 299 300 301 301 298 297 295 293 293 291 291 292 290 289 288 289 289 288 289 290 289 289 288
295 291 297 298 297 295 293 291 291 295 297 293 292 293 296 297 298 299 299 300 300 297 298 298 298 297 296 294 293 292 292 291 292 291 290 288 288 288 288 289 289 289 288 288
293 295 299 297 294 293 292 290 291 291 294 291 288 288 291 295 298 299 299 300 298 297 297 295 296 296 294 292 292 292 292 291 291 290 290 287 286 286 285 286 286 287 288 287
294 298 297 295 293 294 289 294 294 292 288 284 289 283 289 292 293 295 296 298 295 296 297 296 294 294 293 292 292 292 292 291 291 290 289 285 284 282 284 285 286 286 287 286
292 292 292 292 293 295 291 292 290 290 288 286 286 283 287 292 291 293 295 298 297 297 297 295 295 294 293 292 292 292 291 291 291 290 289 286 284 284 284 284 284 284 284 285
293 295 293 293 292 292 292 290 289 286 285 280 286 285 284 288 291 292 294 296 295 296 295 294 294 294 293 291 291 291 290 290 290 289 288 286 285 284 283 282 282 282 283 283
290 291 292 293 290 290 289 287 280 278 277 280 287 284 289 291 292 293 294 295 295 296 293 293 292 291 291 291 291 291 290 289 289 288 287 286 286 285 283 283 282 282 281 280
285 285 291 292 292 290 287 288 281 275 277 282 282 281 286 294 296 295 295 294 295 294 294 293 292 291 291 291 290 290 289 288 288 287 286 286 286 286 284 283 282 281 280 280
286 286 290 291 291 292 288 284 289 282 277 277 285 287 291 292 293 293 292 292 292 293 294 293 292 291 290 290 290 290 289 289 288 287 286 286 285 283 283 281 280 280 279 280
290 286 290 287 288 288 287 289 282 283 273 272 282 284 286 288 290 290 290 290 291 292 293 293 293 292 291 291 290 290 290 288 288 287 286 285 284 282 281 280 279 278 278 277
293 289 287 286 284 285 283 283 285 286 283 278 278 283 287 289 290 290 290 292 293 293 292 293 294 293 291 290 290 289 288 287 287 285 285 283 282 281 279 279 278 277 277 277
293 289 284 286 290 288 289 288 288 283 281 280 283 284 294 290 291 292 292 293 293 294 295 293 293 292 290 290 289 288 288 287 286 285 283 282 280 279 278 277 276 277 276 276
291 285 281 283 288 287 284 287 289 289 286 283 280 283 292 295 293 291 292 293 293 294 293 294 293 291 290 289 289 288 287 287 286 284 283 280 279 278 277 276 276 276 275 275
294 287 284 281 284 289 285 287 287 287 282 283 283 285 290 293 293 295 296 297 294 294 293 294 292 292 291 290 289 288 287 287 285 283 282 280 278 277 276 276 275 275 274 274
290 283 285 287 288 288 287 286 287 286 286 282 285 285 289 292 293 294 296 296 296 294 294 292 292 292 291 290 288 288 287 286 285 283 281 279 277 276 276 275 275 274 273 273
291 283 285 283 286 286 284 286 287 287 287 287 288 287 293 294 295 295 296 296 296 296 296 295 291 289 288 288 288 286 286 285 284 281 279 278 276 275 275 274 274 273 273 272
286 285 283 280 285 284 280 285 286 287 289 289 285 289 294 293 294 295 296 297 297 295 296 292 290 289 288 288 287 285 285 284 281 279 278 276 275 274 274 273 272 272 271 272
289 286 285 282 284 275 285 292 290 289 290 291 291 293 295 295 296 297 298 295 296 297 296 294 289 290 289 287 284 283 282 282 280 278 277 275 274 273 273 272 271 271 271 271
294 289 284 280 280 284 286 290 289 287 287 293 292 294 295 296 296 296 299 299 298 297 298 297 291 290 289 285 283 282 280 279 277 276 275 274 273 273 272 271 270 270 270 270
291 292 286 284 279 277 286 292 294 293 283 293 294 293 293 294 288 292 298 297 293 293 292 291 290 288 284 280 281 280 277 276 275 276 275 274 273 272 271 270 270 270 270 270
283 284 282 283 281 283 289 293 292 281 284 292 292 290 289 287 289 292 292 291 290 290 290 287 285 284 281 279 278 277 275 275 276 275 273 272 271 270 271 269 269 269 268 269
282 282 282 283 279 277 287 287 283 286 289 286 285 285 284 287 289 291 291 291 289 288 287 283 279 278 277 278 278 276 274 275 274 273 271 270 269 269 269 268 267 266 267 266
276 278 275 278 278 286 286 283 286 291 285 285 285 286 287 287 287 289 289 289 288 287 285 279 277 275 274 275 277 275 274 273 272 270 268 267 267 267 267 266 265 265 265 266
277 281 276 275 282 279 280 283 286 287 282 283 282 282 284 284 285 285 285 286 287 285 284 279 277 275 273 274 276 276 273 272 269 267 266 266 265 264 265 266 266 266 265 266
274 275 273 273 277 278 280 282 282 282 281 281 282 282 281 282 282 282 282 283 286 287 288 280 280 278 278 274 274 273 271 270 268 267 266 265 265 265 264 266 266 267 268 268
276 274 272 270 277 277 277 280 280 279 278 277 277 279 281 283 282 284 284 284 284 284 285 280 278 278 277 274 274 270 270 269 267 266 265 265 264 265 265 265 266 271 270 272
Wind_Speed
7 5 13 15 17 15 13 16 17 22 9 10 16 19 15 12 13 12 15 17 15 13 10 15 16 12 14 14 14 14 13 10 9 5 6 5 6 4 4 4 7 7 6 6
4 13 19 9 12 9 9 13 22 20 11 8 10 14 11 9 17 20 17 19 19 8 7 12 14 12 16 16 14 15 15 13 10 8 5 4 5 4 4 4 6 6 7 6
19 9 15 6 8 10 13 12 16 17 11 6 4 8 12 9 19 16 18 22 11 11 10 10 12 14 15 16 18 17 17 16 14 9 6 4 4 4 3 4 5 5 7 6
17 18 20 18 19 12 22 11 13 13 6 8 5 14 9 6 10 11 16 19 9 11 8 11 12 14 17 15 14 16 16 16 14 12 10 10 8 7 5 5 4 6 8 7
9 5 6 10 15 9 8 2 3 3 5 6 4 11 7 10 10 12 12 16 10 10 12 13 16 17 15 13 15 14 14 15 15 15 13 10 7 5 4 4 8 6 6 7
16 5 3 4 3 2 4 1 3 2 2 12 12 12 3 8 9 6 9 14 11 8 9 9 9 13 13 12 12 14 16 16 14 14 13 15 14 9 6 7 6 5 5 5
6 19 2 4 4 2 4 3 4 5 1 17 11 12 17 5 8 11 12 14 9 10 10 10 13 14 14 17 16 14 16 16 14 14 15 14 13 11 13 10 8 7 5 4
4 10 16 9 14 10 10 10 8 8 9 22 5 12 7 12 12 11 15 10 9 10 10 10 12 13 15 15 17 17 18 16 16 16 16 13 12 10 9 9 7 6 5 6
8 12 4 6 3 10 6 8 4 2 3 4 12 13 9 8 12 11 9 8 8 9 9 10 9 12 12 14 19 19 19 19 18 17 14 14 12 10 10 9 7 6 6 5
6 12 9 4 3 2 4 0 3 2 3 9 20 16 17 7 13 9 6 8 7 9 9 9 10 12 13 14 15 17 18 19 16 16 15 13 12 9 8 8 9 9 7 7
8 6 13 7 10 10 2 4 5 2 7 10 13 14 3 5 3 7 7 5 7 10 11 13 12 12 13 12 15 15 15 16 16 15 13 12 11 10 9 10 9 8 7 7
6 3 9 15 7 3 5 13 15 13 19 5 13 28 8 2 7 12 8 8 7 8 11 11 13 13 13 14 13 17 16 16 16 13 13 12 10 10 11 10 9 8 8 7
9 4 7 11 15 3 6 6 10 13 11 18 17 24 5 21 14 8 7 9 10 12 9 10 9 12 15 15 15 17 17 18 14 13 15 13 14 14 13 10 9 8 8 7
6 6 11 15 18 16 12 14 9 12 11 20 22 27 34 28 23 24 22 21 11 12 11 14 9 12 14 16 16 16 16 16 15 15 16 15 15 14 12 10 9 9 8 8
12 12 18 26 27 28 28 23 27 27 23 21 27 27 28 30 20 28 23 20 19 12 10 11 11 11 15 14 15 15 15 16 16 16 17 16 12 12 11 11 10 9 9 7
13 10 15 23 28 29 31 30 31 33 33 34 33 33 34 29 29 32 28 28 21 16 16 14 11 12 12 15 17 16 15 16 17 17 16 14 13 13 13 13 12 11 9 8
10 10 10 22 24 26 23 35 35 35 33 35 30 41 44 33 34 34 34 24 24 13 15 10 12 12 11 12 15 14 15 13 15 16 16 16 15 15 15 13 12 11 10 9
19 20 15 19 16 26 21 23 32 34 33 34 34 36 34 34 34 26 14 14 18 18 19 14 9 9 10 8 10 9 11 15 16 16 16 16 17 16 14 14 13 11 9 9
25 24 15 14 20 24 6 22 27 23 35 32 29 31 33 27 26 26 26 20 17 16 19 15 9 9 7 9 10 14 13 15 15 16 17 18 18 16 15 14 13 11 10 9
28 28 22 18 18 19 10 22 27 28 20 15 24 24 26 22 14 19 20 16 10 11 9 9 6 4 7 7 11 14 14 16 18 19 17 17 17 17 17 15 14 11 10 9
10 18 25 20 17 9 5 19 11 16 13 13 15 19 22 10 9 16 17 15 8 7 8 4 0 4 4 8 12 12 14 18 14 13 14 14 14 16 15 14 11 11 9 8
15 17 21 24 27 25 16 9 11 14 11 16 19 18 19 19 20 14 16 16 14 13 10 5 1 1 1 6 10 11 14 9 12 14 15 14 14 11 12 15 11 10 9 8
6 3 5 4 8 6 4 7 13 13 17 19 15 17 14 16 21 23 17 14 9 8 8 3 4 4 3 6 9 11 9 12 14 15 14 15 14 12 13 13 13 10 9 7
10 12 7 15 4 26 29 23 10 7 5 10 10 13 15 18 20 21 18 17 14 7 9 7 8 9 10 10 11 9 13 14 15 15 16 15 14 13 12 11 9 8 10 8
11 17 11 21 20 23 19 17 21 23 23 22 21 18 19 16 19 17 19 22 15 13 10 8 12 12 14 11 12 8 14 17 16 15 14 14 12 14 13 9 10 9 7 9
10 14 15 18 22 22 26 25 21 18 18 14 19 20 17 18 19 19 20 19 16 17 16 9 12 13 12 15 16 16 19 19 17 15 14 14 13 12 12 11 11 13 14 15
Wind_Direction
195 181 216 215 216 235 258 264 262 269 266 182 229 246 247 250 272 256 259 261 252 249 238 189 174 161 157 156 159 163 162 169 168 162 161 160 174 181 170 172 156 154 161 172
208 220 234 260 263 270 270 278 272 277 301 175 256 258 259 253 259 258 260 267 266 237 237 159 162 157 164 162 163 166 172 175 178 170 171 160 161 186 168 164 159 171 167 177
230 206 216 219 243 263 240 240 260 266 279 226 286 262 249 240 250 260 261 255 249 219 212 169 161 166 161 167 171 174 176 179 181 170 159 137 102 94 131 170 169 174 166 163
253 237 242 250 252 232 269 245 259 271 272 245 123 286 219 227 257 230 249 265 241 221 190 169 162 166 172 176 173 178 179 182 181 173 172 171 176 168 192 172 162 169 164 172
221 178 194 233 239 205 264 116 282 291 268 313 223 275 234 187 239 235 242 255 253 236 179 165 172 172 176 171 179 182 181 186 186 187 176 173 183 180 158 148 151 157 167 171
257 122 201 224 70 100 131 289 239 240 221 256 206 216 183 191 210 226 228 250 249 168 156 156 163 162 173 172 178 185 188 193 187 186 181 180 184 176 156 155 160 169 177 178
228 238 147 137 156 174 192 142 295 305 232 260 179 231 245 195 183 192 215 239 202 160 159 164 162 171 178 184 185 184 190 196 189 185 190 190 184 181 179 172 167 168 167 173
253 273 172 180 212 172 181 177 173 228 251 278 149 252 241 214 227 211 208 233 154 163 167 179 179 184 188 184 186 187 193 195 192 188 193 192 190 189 180 173 168 173 171 165
203 251 35 152 177 161 181 200 200 257 73 319 264 281 294 248 228 220 196 159 173 180 181 180 177 184 188 190 192 193 194 199 196 195 192 193 190 184 179 166 158 161 156 156
249 260 187 149 52 263 190 244 111 235 246 243 278 279 270 233 223 216 182 210 210 199 183 190 191 194 198 196 194 198 199 199 196 194 193 190 188 177 166 161 164 159 159 157
231 222 261 124 192 183 160 240 226 245 183 235 267 275 206 86 45 164 215 217 216 197 198 203 199 197 191 191 195 197 199 195 200 191 187 186 180 171 161 169 163 162 157 157
213 206 242 230 231 187 241 220 204 221 237 242 235 259 261 112 168 152 171 199 223 215 205 198 202 187 187 195 189 196 195 199 198 185 180 183 166 167 167 164 161 156 152 150
347 316 289 288 279 231 221 235 251 259 266 253 249 259 214 255 250 224 252 241 229 228 213 212 203 187 195 195 196 197 196 200 189 177 180 176 176 175 174 162 154 146 148 150
126 227 247 241 247 293 280 281 269 252 251 259 254 268 279 271 279 287 283 276 247 233 213 228 217 199 199 200 198 198 199 193 184 178 180 181 179 175 164 152 149 152 149 155
163 223 224 238 247 257 257 261 265 274 270 266 275 267 270 276 273 269 269 275 275 278 245 224 226 213 206 200 198 198 196 185 179 177 180 180 167 161 151 149 150 145 154 161
178 222 216 228 235 245 252 257 250 246 249 250 253 265 256 256 265 270 274 268 279 267 266 256 229 223 207 200 199 196 189 183 173 176 176 165 158 157 156 153 154 154 156 162
189 198 217 245 229 238 238 233 244 249 242 240 245 241 253 253 251 258 267 280 275 266 260 238 230 226 211 205 197 191 184 163 166 167 168 166 162 160 162 155 151 160 167 163
229 233 231 248 230 226 221 230 231 243 242 241 243 249 254 253 257 261 264 262 277 284 284 259 227 230 223 202 180 149 153 165 169 169 167 163 163 162 158 156 159 157 157 167
227 234 240 238 233 252 198 215 221 227 241 243 255 256 253 260 256 269 265 262 268 270 272 270 227 222 205 174 159 149 154 161 166 174 173 169 165 162 159 163 157 159 158 168
233 227 233 238 246 249 229 236 246 260 258 244 246 255 256 256 255 255 260 262 241 237 242 253 235 191 165 152 146 152 163 167 180 182 177 168 164 162 163 161 162 160 160 158
215 229 240 243 254 268 278 279 287 239 298 354 8 25 22 13 343 344 353 349 320 307 309 3 152 206 172 147 146 167 170 192 176 162 162 164 162 159 155 151 153 152 154 152
269 264 265 266 257 260 18 20 325 332 27 9 352 339 329 325 324 340 345 342 342 342 321 337 242 194 144 158 162 174 194 165 155 154 155 157 156 153 148 148 144 144 148 143
273 5 275 271 328 334 70 330 303 291 332 328 328 323 317 305 307 305 295 290 286 298 299 251 214 207 200 181 186 186 177 157 151 153 158 152 150 152 149 148 144 148 154 154
304 322 322 325 4 314 312 310 343 339 352 334 324 308 312 300 300 294 297 296 286 254 246 221 192 206 213 202 199 195 157 155 154 161 159 157 153 151 152 144 151 155 154 165
288 312 298 285 285 299 298 308 315 321 319 312 308 302 291 296 292 284 291 288 287 283 268 211 219 226 227 189 190 170 161 159 161 164 163 164 156 161 156 151 157 158 163 160
263 272 282 284 300 296 303 321 330 330 337 335 312 309 315 308 295 294 279 280 287 294 285 234 219 225 217 190 189 170 170 169 165 172 172 173 159 162 157 147 140 159 157 160